sat.trackr.live / text

‹ back to catalog

STARLINK-3844

NORAD 52705 · 2022-053BB

PAYLOAD ACTIVE UNKNOWN

§ Identity

Operator
Country
US
Launch date
2022-05-18
Launch site
AFETR
Launch vehicle
Mass (kg)
RCS (m²)

Purposes: comms

External: N2YO · Heavens-Above · Gunter

§ Orbital elements

Epoch: 2026-05-24T23:41:09.021408Z

Period
95.44 min
Inclination
53.2134°
Eccentricity
0.0001210
Mean motion
15.08835466 rev/d
Perigee alt
538.9 km
Apogee alt
540.6 km
Semi-major
6,917.9 km
B*
3.9601e-5
RAAN
151.6086°
Arg perigee
79.5712°
Mean anomaly
280.5416°
Rev number
22,283

§ Raw data

STARLINK-38441 52705U 22053BB  26144.98690997  .00000342  00000+0  39601-4 0  99962 52705  53.2134 151.6086 0001210  79.5712 280.5416 15.08835466222830

JSON: /api/v1/satellites/52705 · /tle

For live sub-satellite position, see the globe view (requires WebGL).

§ Visibility from observer

Set your observer location to see the next 7 days of passes ≥ 10°. The values pass through the URL so the page stays shareable.

No JS? Fill the form by hand. The geolocation button needs JavaScript.